Theta_e
315 316 318 328 335 339 343 343 340 341 335 333 334 333 332 333 333 328 332 327 330 331 331 333 331 325 322 320 318 317 317 317 317 317 316 316 316 316 316 316 317 317 318 329 332 333 337 336 334
315 316 321 327 336 338 337 338 340 332 333 333 332 333 332 334 333 329 325 325 329 328 329 329 324 320 319 318 317 318 318 318 317 316 317 317 317 318 318 317 317 317 319 324 328 330 337 338 336
315 317 321 319 333 341 339 337 330 332 333 334 333 333 332 332 330 324 323 325 324 321 322 321 319 318 317 318 320 321 321 321 319 318 317 317 318 318 319 319 319 319 321 324 326 327 334 337 338
322 323 321 316 326 335 337 335 336 333 332 332 333 333 333 333 323 321 321 321 319 319 319 317 316 318 320 321 322 322 322 321 321 320 319 318 318 317 317 317 318 318 319 320 321 323 327 331 335
321 322 314 317 319 334 334 336 335 333 331 332 332 332 333 334 321 319 318 318 317 317 318 319 321 321 321 321 322 322 322 322 321 321 320 320 319 320 321 321 320 318 316 316 317 318 319 320 320
319 317 317 330 334 336 335 336 335 333 332 332 332 332 332 320 317 317 317 317 319 320 321 321 321 321 321 321 321 321 322 322 322 324 326 330 331 333 334 335 336 330 329 325 323 320 317 315 315
316 312 316 332 338 338 337 335 333 332 332 332 333 331 331 320 319 319 319 320 320 320 320 320 320 320 320 321 321 321 321 322 328 327 336 336 335 335 337 338 337 338 339 339 337 338 339 333 319
319 312 316 329 337 339 337 336 335 334 334 334 333 332 332 331 328 321 320 320 320 320 320 321 321 322 322 322 323 323 323 323 327 337 338 338 338 339 339 340 339 338 338 339 338 340 342 340 332
319 313 315 330 337 337 336 335 338 336 334 335 335 332 334 336 336 325 322 321 321 321 321 324 330 333 335 324 338 336 336 336 338 332 336 336 339 339 340 342 342 342 341 342 340 339 339 341 341
316 314 322 331 333 334 336 338 337 335 336 335 334 333 334 336 338 334 334 324 326 331 331 332 337 338 339 337 340 340 339 339 340 340 338 339 340 341 341 342 342 342 342 341 341 341 339 336 337
317 322 329 335 337 336 339 339 339 336 336 335 335 334 334 335 338 337 338 337 338 339 339 340 340 339 339 340 340 341 341 340 341 341 340 340 341 341 341 342 342 342 342 345 347 346 344 342 341
321 332 338 337 338 340 337 340 338 337 337 336 334 335 335 335 337 336 337 339 338 340 340 341 341 341 341 341 341 341 342 342 341 342 342 341 341 341 342 341 342 341 341 343 346 347 347 346 346
323 336 338 338 337 338 337 335 335 337 336 336 335 335 336 336 337 337 337 338 339 340 341 341 342 344 342 343 342 341 341 340 340 341 341 342 342 342 343 343 343 343 343 344 344 344 345 345 346
334 338 338 337 336 335 333 334 336 338 336 335 335 336 335 337 337 337 337 338 339 341 342 342 343 344 343 344 344 343 342 342 341 341 341 342 343 344 344 344 345 345 345 344 342 341 340 341 343
337 336 336 336 335 335 334 333 336 337 337 336 336 336 337 336 336 335 335 337 340 342 342 344 344 343 342 341 342 344 344 344 344 343 343 344 344 345 345 346 345 343 338 332 330 329 329 330 331
331 325 338 336 336 335 336 333 336 336 337 337 339 342 345 345 343 339 336 336 340 343 345 347 347 348 348 347 347 345 346 346 346 346 345 346 346 346 343 337 325 318 317 318 319 318 319 319 319
315 318 320 338 335 334 335 337 335 337 337 339 344 347 348 347 347 346 344 344 346 347 348 348 348 348 347 347 350 351 348 349 347 346 344 341 333 324 316 315 315 315 316 316 317 319 319 320 320
318 318 319 332 331 333 336 336 336 338 340 340 345 347 347 347 347 346 346 346 347 347 346 347 348 349 348 348 350 350 348 345 340 337 325 317 315 314 313 313 313 312 312 312 313 317 319 319 319
317 318 318 316 320 334 337 336 338 339 341 343 344 346 346 346 346 346 346 346 346 346 345 345 347 348 349 347 349 346 343 341 331 321 315 314 312 312 311 311 310 310 309 309 310 313 314 313 312
317 317 316 316 323 329 332 337 339 335 341 343 344 345 346 346 346 345 344 343 343 342 343 344 346 349 348 346 345 345 343 331 322 316 314 314 313 312 312 312 311 310 309 309 309 310 310 311 311
317 319 317 319 323 324 335 336 341 339 342 343 344 344 345 345 345 344 344 344 342 339 338 338 341 345 345 345 345 344 336 324 318 316 315 315 314 313 313 313 312 312 311 311 311 311 311 312 313
318 317 319 323 323 323 327 337 325 338 341 341 342 343 344 345 344 343 344 343 341 338 336 334 336 342 344 342 340 334 325 320 316 316 316 316 315 314 314 313 314 314 314 316 315 315 315 313 314
318 317 319 322 320 321 321 320 318 327 334 339 339 342 343 344 343 343 344 342 339 335 331 328 331 333 329 331 329 328 323 321 316 317 317 317 316 315 314 315 317 317 317 317 317 316 316 316 315
320 320 316 315 315 319 319 318 317 317 327 337 336 341 343 343 344 344 343 341 336 333 327 322 328 332 327 327 329 327 325 317 316 317 317 317 317 316 316 316 318 318 318 318 318 318 317 317 316
317 317 318 319 317 321 317 318 319 321 322 321 330 338 342 342 343 343 342 338 335 331 326 319 324 328 327 329 330 323 318 315 316 316 316 317 317 317 318 318 318 318 318 319 319 319 318 318 317
320 317 317 320 318 317 317 321 322 326 327 333 329 332 341 340 343 342 342 338 334 330 325 318 319 319 319 320 319 318 316 315 316 315 316 318 318 317 320 320 320 320 319 318 318 318 318 317 316
320 319 316 316 317 320 319 324 326 326 332 337 338 339 339 339 339 341 341 336 332 329 324 318 318 318 317 317 317 318 315 316 316 315 317 319 318 320 320 320 320 319 318 316 316 315 317 316 315
319 317 321 316 323 324 320 323 324 327 330 336 336 337 337 336 336 341 339 336 333 330 326 319 317 316 316 316 315 316 317 318 319 317 318 319 320 320 321 320 318 315 313 312 312 314 314 314 312
321 319 315 316 318 322 323 322 320 325 324 332 334 337 338 338 340 341 338 336 333 329 326 323 317 316 316 316 316 317 318 319 319 320 321 321 321 321 321 318 313 311 311 310 310 310 310 310 310
320 321 317 319 320 318 318 318 318 322 323 327 334 337 337 338 340 340 339 336 332 329 327 325 319 317 317 318 319 319 320 321 322 322 322 322 322 320 316 312 310 309 308 307 307 307 308 309 307
Wind_Speed
9 7 6 4 3 5 3 2 1 3 3 2 7 4 9 9 1 3 17 18 22 20 19 18 14 11 10 9 9 9 10 10 10 11 11 12 12 12 11 10 10 10 12 14 13 10 8 5 5
7 6 2 2 4 3 5 4 1 5 16 23 17 14 8 3 6 21 23 21 21 19 18 16 14 12 11 10 11 11 11 11 12 12 12 13 13 13 13 12 11 11 11 11 10 8 7 5 3
3 2 1 4 3 3 1 3 5 13 18 2 8 10 6 5 17 24 20 24 21 19 18 16 13 12 12 12 12 12 12 12 12 12 12 12 12 12 11 11 10 10 9 7 7 5 4 3 1
1 2 4 4 1 3 7 5 2 8 12 12 12 7 9 6 18 19 23 22 19 18 16 14 14 14 13 13 12 12 12 12 12 13 13 13 13 12 12 11 9 8 5 3 1 2 3 3 4
2 2 3 2 3 3 4 6 7 5 2 15 9 5 10 10 18 23 22 20 18 19 18 17 16 15 14 13 13 12 12 12 13 13 14 14 15 15 14 13 12 10 8 6 5 4 4 5 5
3 2 4 0 2 4 3 12 7 5 5 22 19 12 5 20 23 22 21 21 19 18 18 17 16 14 13 13 12 12 12 12 12 13 14 16 17 16 16 15 15 13 13 11 11 10 9 8 7
5 3 3 3 3 4 2 11 5 6 1 5 11 6 14 24 22 22 20 19 17 16 16 16 15 14 13 12 12 11 11 11 12 11 12 14 13 13 14 14 13 13 13 14 13 13 14 13 10
3 5 6 4 6 5 2 4 10 9 2 23 16 6 10 26 22 22 21 18 16 15 15 15 15 14 12 12 12 11 11 11 11 10 11 11 11 10 10 11 10 10 10 11 10 9 9 10 8
5 4 2 7 9 5 5 5 7 8 19 11 5 23 32 29 25 23 23 20 19 18 17 17 16 15 13 13 13 13 13 11 10 10 8 8 7 8 8 8 7 7 5 6 6 6 6 5 4
4 4 8 8 11 9 19 16 16 11 10 3 22 27 30 30 28 26 25 24 23 21 19 17 16 14 14 13 10 9 9 9 9 9 7 6 6 6 4 5 6 7 7 7 7 8 9 9 7
4 4 5 8 20 36 20 14 14 15 4 17 30 32 32 31 29 25 23 21 20 20 20 18 15 12 11 9 7 5 5 5 6 5 4 3 2 4 7 9 12 13 13 11 10 10 10 11 12
4 1 10 8 18 17 11 14 7 11 7 23 33 30 32 34 31 27 23 21 21 21 17 15 15 11 11 7 4 5 5 6 6 5 4 3 3 5 8 11 15 17 17 16 16 15 15 15 16
4 3 11 14 13 14 12 7 4 3 14 27 33 29 32 34 32 29 25 21 20 19 18 14 14 11 13 8 6 8 6 6 7 6 6 6 6 7 11 14 17 17 17 19 20 20 21 21 20
8 14 9 8 3 2 8 1 2 15 24 32 29 30 29 31 32 29 26 24 21 18 20 16 15 13 12 10 8 8 7 6 7 6 7 7 7 10 13 17 19 20 21 23 24 25 24 24 24
19 7 7 3 1 1 9 4 5 19 21 30 23 25 23 23 26 31 27 26 25 21 22 16 13 10 11 12 12 11 9 9 7 7 6 8 10 13 18 20 22 22 21 19 19 19 20 21 21
6 5 5 4 2 2 2 9 8 22 26 24 18 22 22 19 21 26 29 28 27 26 24 20 17 15 14 14 13 12 9 8 8 7 8 10 13 17 18 18 16 15 15 16 17 17 17 17 18
6 5 2 2 7 1 4 6 9 24 29 19 24 29 28 26 25 27 30 31 30 26 23 22 20 17 15 13 13 11 11 9 9 7 9 12 13 11 11 12 13 14 15 17 17 18 19 19 17
5 3 4 8 10 7 6 10 5 16 24 24 28 32 30 29 28 28 27 27 25 22 20 19 18 14 11 10 12 12 7 3 3 6 7 7 9 11 12 13 13 14 15 16 16 17 18 19 18
1 2 3 5 9 11 20 6 13 17 18 20 24 30 30 29 27 26 27 26 25 23 19 17 16 14 11 11 11 7 7 5 1 4 6 9 11 11 12 13 15 16 17 18 18 19 21 21 21
3 2 7 9 6 7 10 17 10 15 23 34 32 31 34 30 28 26 24 23 22 20 18 16 15 13 10 11 11 10 7 4 3 7 8 11 12 14 14 15 16 16 16 16 17 19 21 21 22
3 2 4 7 5 4 9 5 4 7 12 19 23 32 37 38 33 27 25 23 21 19 18 18 17 16 16 15 14 12 8 6 5 9 11 13 13 13 14 15 16 16 16 18 19 20 22 21 19
4 7 6 4 3 4 2 4 5 11 14 14 25 30 38 38 32 30 28 25 21 19 17 16 17 17 16 15 13 8 6 4 8 8 9 10 11 12 13 14 15 16 17 19 20 21 23 22 21
11 7 8 3 3 4 1 3 6 6 11 17 22 36 39 42 37 35 31 24 19 16 15 16 16 16 15 14 11 10 8 5 7 7 6 8 9 10 11 11 12 13 14 15 16 18 19 19 18
5 5 7 5 3 2 4 5 5 6 16 24 27 36 43 41 40 37 31 24 19 16 16 17 18 19 17 16 14 10 8 8 8 7 4 4 6 8 9 8 9 12 13 15 16 18 18 18 17
6 7 2 3 3 5 4 3 8 6 9 9 20 37 46 42 44 42 35 29 23 17 16 18 20 21 21 19 17 14 12 12 9 7 3 2 4 6 9 8 10 13 15 15 15 16 18 19 18
0 7 6 6 4 5 4 5 5 6 12 8 16 32 31 37 46 45 38 32 26 21 19 21 21 21 22 20 19 16 13 12 9 6 4 4 5 7 7 9 12 15 17 18 17 17 16 18 12
5 3 4 7 4 3 3 4 7 6 6 11 13 24 28 36 43 44 37 33 25 23 19 21 23 23 20 19 19 17 15 12 9 6 7 7 6 6 9 11 14 16 17 19 17 18 16 14 17
7 8 3 3 4 3 4 4 5 5 4 4 10 22 27 29 33 39 40 36 29 23 20 22 24 25 24 22 19 17 15 12 9 8 8 7 6 8 12 15 17 19 18 17 17 17 16 16 19
1 2 6 5 4 6 2 6 7 9 9 11 15 28 35 38 42 45 43 37 31 29 25 23 27 28 27 24 22 20 17 15 12 11 8 7 9 11 14 16 17 16 16 16 13 12 13 14 15
7 6 6 5 3 0 3 6 6 9 10 18 24 29 33 37 44 45 44 40 39 35 32 28 30 30 27 24 20 17 16 16 13 12 10 10 11 12 13 13 14 16 18 17 14 12 11 12 15
Wind_Direction
334 342 331 339 59 57 349 329 207 304 35 24 115 131 126 46 97 193 147 152 159 154 148 152 162 160 152 141 129 115 104 96 95 95 96 94 93 95 97 99 103 110 127 134 130 118 109 118 126
335 340 22 43 80 55 299 262 209 134 127 99 92 94 65 60 99 133 146 155 158 149 147 153 157 153 145 134 119 108 102 100 99 97 97 95 94 94 93 92 94 104 122 135 135 126 121 111 126
335 323 339 97 122 118 196 271 161 153 157 203 123 80 92 106 127 141 147 150 154 147 148 152 152 144 135 127 119 114 108 101 96 93 91 89 87 87 86 87 90 100 119 136 149 151 145 148 195
90 67 40 75 301 264 159 199 174 129 93 110 91 60 96 125 140 147 144 149 148 143 143 143 138 134 130 124 117 108 101 95 91 88 86 83 80 77 74 71 68 70 80 100 161 224 237 237 241
70 74 52 66 267 339 324 144 118 346 35 116 101 93 106 150 144 143 143 145 142 138 140 139 135 132 127 121 114 108 102 97 92 89 86 82 78 73 68 65 62 58 50 38 16 343 318 302 285
78 88 61 219 10 358 24 111 143 56 92 100 101 98 80 134 138 138 138 138 141 140 141 139 135 130 125 118 110 104 98 93 89 87 84 81 79 73 67 59 54 50 44 39 32 22 8 352 336
127 79 183 129 130 27 110 131 66 95 198 89 125 88 138 146 137 133 137 141 145 147 142 138 133 127 121 115 108 101 96 91 88 92 80 77 78 67 59 49 44 42 39 39 29 25 18 20 25
159 113 138 216 170 171 66 53 118 198 40 125 114 154 171 156 145 141 144 148 151 147 143 135 127 120 116 112 106 101 96 95 89 86 70 63 61 56 49 43 43 40 33 28 19 12 9 22 33
214 68 167 180 155 166 149 150 190 184 165 188 166 161 153 152 155 154 155 160 158 155 149 141 128 120 111 121 103 104 101 101 85 86 74 63 67 56 42 33 39 25 16 8 1 352 337 336 349
136 123 213 186 163 166 168 184 160 151 174 178 115 144 154 160 164 162 163 162 161 156 152 150 139 125 114 115 108 106 106 100 94 82 79 77 69 45 27 357 357 353 341 332 332 330 324 316 309
181 199 178 200 168 165 168 177 176 163 188 173 147 156 167 171 176 174 174 171 162 159 159 155 153 140 135 127 118 121 126 109 106 107 100 99 46 10 346 335 330 325 321 321 326 324 319 314 313
179 40 139 164 163 161 164 152 121 183 200 174 163 164 176 180 185 186 183 184 175 175 167 168 168 162 163 157 150 171 174 181 170 190 205 233 291 319 329 323 322 312 308 306 308 310 310 308 307
102 68 122 155 166 155 145 87 84 121 143 164 160 171 185 189 194 197 195 191 185 186 181 183 181 169 172 165 171 175 192 200 217 234 248 258 276 286 301 313 320 318 309 307 306 304 302 298 296
129 104 81 153 150 134 130 59 50 160 152 164 167 181 190 198 201 207 211 204 192 193 195 188 180 168 173 180 199 211 231 244 258 257 264 264 270 288 303 312 314 314 313 311 310 309 307 301 299
108 87 51 336 125 252 130 335 250 172 166 170 179 188 192 201 207 220 220 213 198 191 187 188 178 177 198 211 223 234 240 248 264 274 274 275 291 303 309 313 315 316 318 319 315 313 310 307 304
75 62 120 240 305 252 21 241 219 181 179 174 174 170 163 168 185 199 203 203 186 185 182 179 187 190 202 212 220 219 215 219 238 251 271 284 297 311 315 318 323 331 331 334 334 333 331 328 326
351 159 182 16 208 269 184 238 230 184 187 174 172 164 155 151 155 158 167 172 176 181 183 190 198 202 208 210 214 214 224 229 247 269 303 323 324 332 337 342 347 347 348 348 353 353 354 353 353
175 140 160 176 212 229 212 263 258 194 189 184 172 171 169 166 167 172 175 179 186 191 195 193 197 209 208 209 220 226 231 247 326 344 355 0 4 8 10 10 8 5 3 5 6 5 1 359 359
120 140 282 249 200 164 218 238 222 184 190 183 177 174 180 179 180 186 192 194 195 201 207 213 214 212 217 216 216 222 243 272 333 43 37 38 41 40 35 30 24 18 13 11 9 11 12 6 5
151 11 296 287 144 152 175 228 229 186 199 191 183 184 188 186 187 194 203 209 213 215 213 208 209 210 201 216 223 225 252 195 112 79 77 71 60 50 39 33 28 22 19 16 14 12 14 18 13
328 229 256 220 147 68 119 339 198 231 212 206 202 201 196 197 195 199 203 204 206 211 214 213 210 214 205 212 227 230 216 172 120 110 88 72 60 50 41 35 28 24 22 18 15 12 10 14 23
243 209 213 243 121 183 148 231 244 216 215 204 205 208 200 200 201 204 204 205 208 211 210 205 201 201 208 217 223 222 186 161 129 110 95 78 67 50 38 35 32 25 26 24 23 19 18 18 17
228 172 189 159 121 109 276 102 254 140 228 223 209 211 212 209 211 209 208 207 208 207 208 201 196 195 199 207 196 190 193 176 161 145 115 83 59 41 28 28 33 31 25 21 15 11 12 16 16
132 98 52 49 84 59 236 133 283 185 213 227 211 210 213 211 207 212 207 207 202 201 202 203 199 192 190 187 189 199 211 198 186 173 128 73 38 17 13 20 12 5 2 0 359 353 349 352 355
81 68 352 341 9 203 159 78 235 266 234 210 223 210 206 200 204 208 201 199 202 201 205 199 197 189 185 186 194 197 200 199 191 184 199 293 337 341 354 358 348 344 342 339 337 334 335 336 338
190 147 153 199 207 243 206 227 252 255 308 333 248 217 190 188 207 207 202 203 196 197 201 199 194 191 184 185 191 194 198 200 193 210 237 273 294 320 342 339 333 330 327 324 323 321 326 323 325
181 157 179 102 16 74 262 289 332 329 347 76 121 172 182 188 200 203 202 205 195 196 201 203 198 193 192 195 198 202 203 198 204 216 224 242 270 286 307 321 319 321 318 317 317 319 321 322 322
162 154 78 16 139 230 290 273 238 252 220 157 153 174 183 188 194 202 207 203 202 203 196 202 202 200 199 200 201 203 200 198 206 222 229 247 264 290 307 315 319 320 323 322 321 321 319 317 314
312 100 52 113 127 165 212 262 220 216 199 193 197 189 194 202 206 207 208 207 206 204 198 201 202 202 202 200 197 199 195 195 210 225 238 253 275 290 300 311 319 325 329 332 340 346 342 337 333
167 164 133 118 237 174 175 261 215 230 214 206 202 203 207 208 207 210 211 207 208 206 202 202 202 204 205 201 199 195 198 207 213 224 239 254 268 289 309 323 326 323 324 323 324 333 332 329 332